Location: Kuffner-Sternwarte
(48.2130°N, 16.2960°E)
Time: 05:33:53
(UTC+02:00)

Envisat - Pass Details

Date: 29 September 2024
Orbit: 762 x 764 km, 98.3° (Epoch: 04 October)

Event Time Altitude Azimuth Distance (km) Brightness Sun altitude
Rises 03:56:23 0° 16° (NNE) 3,237 6.9 -28.7°
Reaches altitude 10° 03:58:43 10° 19° (NNE) 2,307 6.1 -28.4°
Maximum altitude 04:03:46 65° 102° (ESE) 841 3.2 -27.7°
Enters shadow 04:04:15 61° 132° (SE) 864 3.2 -27.6°
